Regional Weather Roundup
Issued by NWS Sioux Falls, SD

Home | Current Version | Previous Version | Text Only | Print | Product List | Glossary On
Versions: 1 2 3 4 5 6 7 8 9 10 11 12 13 14 15 16 17 18 19 20 21 22 23 24 25 26 27 28 29 30 31 32 33 34 35 36 37 38 39 40 41 42 43 44 45 46 47 48 49 50
000
ASUS43 KFSD 282210
RWRFSD

WEATHER ROUNDUP FOR SE SOUTH DAKOTA/SW MINNESOTA/NW IOWA
NATIONAL WEATHER SERVICE SIOUX FALLS SD
400 PM CST MON NOV 28 2022

NOTE: "FAIR" INDICATES FEW OR NO CLOUDS BELOW 12,000 FEET WITH NO
SIGNIFICANT WEATHER AND OR OBSTRUCTIONS TO VISIBILITY.


SDZ038>040-050-052>070-282300-
SOUTHEAST SOUTH DAKOTA

CITY           SKY/WX    TMP DP  RH WIND       PRES   REMARKS
BROOKINGS      MOCLDY    38  26  62 NW12      29.62R
CHAMBERLAIN    MOCLDY    38  19  46 N9G16     29.67R
HURON          MOCLDY    38  23  55 NW9       29.66R
MADISON        PTCLDY    39  27  60 N14       29.62R
MITCHELL       MOCLDY    42  21  43 N15       29.64S
SIOUX FALLS    MOCLDY    43  24  47 N13       29.62R
WINNER         MOCLDY    39  18  42 N13       29.66R
YANKTON        MOCLDY    45  27  49 NW5       29.65R
$$

MNZ071-072-080-081-089-090-097-098-282300-
SOUTHWEST MINNESOTA

CITY           SKY/WX    TMP DP  RH WIND       PRES   REMARKS
FAIRMONT       MOCLDY    45  29  53 SW17      29.62
JACKSON        MOCLDY    41  28  60 SW9       29.62R
LUVERNE        PTCLDY    41  25  52 NW7       29.62R
MARSHALL       MOCLDY    41  27  57 NW13      29.62R
MONTEVIDEO     MOCLDY    37  28  70 NW9       29.63R
REDWOOD FALLS  MOCLDY    42  28  57 NW12      29.60R
TRACY          MOCLDY    43  28  56 W9G15     29.60R
WINDOM         MOCLDY    43  27  52 SW9       29.61R
WORTHINGTON    MOCLDY    43  27  53 SW13      29.61R
$$

IAZ001>003-012>014-020>022-031-032-NEZ013-014-SDZ071-282300-
NORTHWEST IOWA

CITY           SKY/WX    TMP DP  RH WIND       PRES   REMARKS
CHEROKEE       PTCLDY    49  27  42 SW7       29.63S
DENISON        CLEAR     52  28  40 S10       29.66R
ESTHERVILLE    MOCLDY    46  28  49 SW13      29.62R
LE MARS        MOCLDY    48  27  43 W6        29.61S
MAURICE        FAIR      45  27  49 W14       29.61R
SHELDON        MOCLDY    45  28  53 W10       29.60S
SIOUX CITY     MOCLDY    50  28  42 SW7       29.62S
SPENCER        MOCLDY    47  27  45 SW9       29.63R
STORM LAKE     PTCLDY    48  28  46 SW14G21   29.63R
$$

ABBREVIATIONS USED IN REMARKS
   TC - TEMPERATURE IN CELSIUS
  WCI - WIND CHILL INDEX
   HX - HEAT INDEX
  VSB - VISIBILITY




USA.gov is the U.S. government's official web portal to all federal, state and local government web resources and services.